DSCS II F-1

operational
NORAD ID: 5587 Int'l Des: 1971-095 Owner: SAMSO/DCA Country: US
HEOCIRCULARGSO

关于 DSCS II F-1

正在加载描述...

实时位置

正在加载3D地球...

即将过境

高度历史

Altitude vs Time

uPlot chart will show altitude changes over time

两行轨道根数

1 05587U 71095A 26062.56688062 -.00000144 00000-0 00000-0 0 9994
2 05587 1.8574 257.5090 0006224 14.0315 355.0091 1.00274650120964
Epoch: Mar 3, 2026 • Age: 28 hours

当前状态

高度 35807.1 km
速度 3.07 km/s
星下点 -1.40°S, 98.88°W
类型 other

大型星座

Loading constellations...